www.pogodaiklimat.ru

Погода и климат >> Архив погоды >> Россия >> Забайкальский край >> Агинское


ПОГОДА в Агинском

  • Прогноз погоды в Агинском
  • Монитор погоды в Агинском
  • Климат города

АРХИВ ПОГОДЫ в Агинском

Время (UTC), дата Ветер
(напр.,м/с)
 
Видим.   Явления Облачность Т
(С)
Тd
(С)
f
(%)
Тe
(С)
Тes
(С)
Комфортность P
(гПа)
Po
(гПа)
Тmin
(С)
Tmax
(С)
R
(мм)
R24
(мм)
S
(см)
06 10.08 В 3 50 км {ливн. осадки} 3/3 1000 м
[Cu med, cong Ac trans]
+23.2 +16.4 66 +28 +35 душно 996.9 922.8
09 10.08 В 4 50 км 4/3 1000 м
[Cu med, cong Ac trans Ci fib]
+24.3 +15.7 59 +27 +29 жарко 996.8 922.9
12 10.08 В 3 50 км 5/1 600 м
[Cb cap Ci ing]
+21.3 +15.8 71 +25 +25 комфорт 998.9 924.2 +24.7 4
15 10.08 В 2 50 км 10/1 600 м
[Cb cap Ci ing]
+18.1 +16.5 90 +19 +19 1000.8 925.2
18 10.08 ЮВ 1 50 км 8/8 600 м
[Cb cap]
+16.7 +15.8 94 +18 +18 1002.0 925.9
21 10.08 В 1 50 км 6/3 600 м
[Cb cap Ci fib]
+17.0 +15.7 92 +18 +18 1002.4 926.3
00 11.08 В 1 50 км гроза без осадков 10/5 600 м
[Cb cap Ci ing]
+16.8 +15.8 94 +18 +20 1003.4 927.2 +15.7
03 11.08 СВ 4 50 км {ливн. осадки} 9/6 600 м
[Cu Sc Ac und]
+23.0 +17.5 71 +28 +30 душно 1002.2 927.7
06 11.08 В 4 50 км {ливн. осадки} 10/5 600 м
[Cb cap Ci ing]
+23.8 +17.2 67 +28 +31 душно 1001.1 926.9
09 11.08 З 2 50 км {гроза, ливн. осадки} 10/3 600 м
[Cb calv Ac cuf Ci fib]
+25.0 +17.7 64 +29 +30 душно 1000.9 927.0
12 11.08 СЗ 3
{10}
50 км в посл. час гроза {ливн. осадки} 10/8 600 м
[Cb cap Ci ing]
+18.2 +16.0 87 +19 +19 1004.6 928.7 +25.1 5
15 11.08 ЮВ 3 1000 м гроза, ливневой дождь 10/10 600 м
[Cb cap]
+16.4 +14.9 91 +16 +16 1006.7 930.1
18 11.08 СЗ 1 50 км {гроза, ливн. осадки} 10/3 600 м
[Cb cap Ac As]
+15.9 +14.7 93 +17 +17 1005.2 928.6
21 11.08 ЮЗ 1 50 км местами туман поземный 10/0
[Ac lent Ci fib]
+13.4 +12.8 96 +13 +13 1007.3 929.9
00 12.08 СЗ 1 50 км 10/0
[Ac lent Cs]
+17.5 +15.4 87 +19 +22 1007.3 930.9 +13.0 9
03 12.08 ЮЗ 1 50 км 10/1 1000 м
[Cu med, cong Ac trans Ci fib]
+23.6 +16.0 62 +27 +34 жарко 1005.3 930.6
06 12.08 В 3 50 км 9/6 600 м
[Cb cap Ci fib]
+24.4 +16.4 61 +28 +31 душно 1004.3 929.9
09 12.08 В 3 50 км 9/5 600 м
[Cb cap Ci ing]
+24.7 +17.2 63 +29 +30 душно 1004.3 930.0
12 12.08 В 2 50 км 9/8 600 м
[Cb cap Ci fib]
+20.6 +15.3 72 +24 +24 комфорт 1006.2 930.7 +25.4
15 12.08 С 1 50 км 8/4 1000 м
[Sc Ci fib]
+17.0 +14.3 84 +18 +18 1008.8 932.2
18 12.08 штиль 0 50 км 6/0
[Ac trans Ci fib]
+16.0 +14.7 92 +16 +16 1009.3 932.4
21 12.08 З 1 50 км 9/8 600 м
[Cb cap Ac trans]
+14.7 +13.8 94 +15 +15 1009.9 932.6
00 13.08 штиль 0 50 км 8/3 600 м
[Cb cap Ac trans Ci fib]
+18.3 +15.0 81 +19 +21 1009.8 933.5 +14.1
03 13.08 В 5 50 км 10/3 1000 м
[Cu med, cong Ac trans Ci fib]
+21.2 +16.1 73 +25 +27 комфорт 1009.2 933.7
06 13.08 В 3 50 км 10/3 1000 м
[Cu med, cong Ac trans Ci fib]
+23.9 +15.6 60 +27 +31 жарко 1007.2 932.4
09 13.08 В 2 20 км слабый ливневой дождь, в посл. час гроза 9/9 600 м
[Cb cap]
+19.0 +15.7 81 +21 +21 комфорт 1008.6 932.6
12 13.08 СВ 3 20 км слабый ливневой дождь, в посл. час гроза 9/9 600 м
[Cb cap]
+17.0 +15.8 93 +17 +17 1009.7 933.1 +24.5 2
15 13.08 В 1 50 км {ливн. осадки} 9/6 600 м
[Cb cap Ac und]
+16.7 +15.4 92 +18 +18 1010.2 933.4
18 13.08 ЮЗ 1 50 км {ливн. осадки} ясно +13.9 +13.3 96 +14 +14 1010.3 932.7
21 13.08 З 2 50 км местами туман поземный 9/8 1000 м
[Sc Ac und]
+14.1 +13.5 96 +13 +13 1010.9 933.4
00 14.08 З 1 50 км 10/3 1000 м
[Sc Ac trans Ci ing]
+17.3 +15.3 88 +18 +20 1010.4 933.8 +13.0 0.5
03 14.08 СВ 3 50 км 10/8 1000 м
[Cu med, cong Ci fib]
+21.1 +16.3 74 +24 +26 комфорт 1009.4 933.8
06 14.08 СВ 2 50 км 10/3 1000 м
[Cu med, cong Cs]
+23.2 +16.1 64 +28 +35 душно 1007.7 932.7
09 14.08 СВ 2 50 км 10/3 1000 м
[Cu med, cong Ci fib]
+23.7 +15.5 60 +27 +29 жарко 1006.3 931.6
12 14.08 ЮЗ 2 50 км 10/1 1000 м
[Sc diur, vesp Ci fib]
+20.3 +17.5 84 +24 +24 комфорт 1008.3 932.7 +24.2
15 14.08 З 2 50 км 3/0
[Ci fib]
+16.9 +15.5 91 +17 +17 1009.5 932.9
18 14.08 ЮЗ 2 50 км 10/0
[Ac trans Ci fib]
+16.0 +15.1 94 +16 +16 1009.5 932.6
21 14.08 ЮЗ 2 50 км 9/1 1000 м
[Sc Ac und]
+15.6 +14.8 95 +15 +15 1010.5 933.4
00 15.08 ЮЗ 2 50 км в посл. час ливневой дождь 10/3 600 м
[Cb cap Ac cuf Ci ing]
+17.8 +16.4 92 +18 +20 1010.7 934.2 +15.5 0.0
03 15.08 С 1 20 км слабый ливневой дождь 10/10 600 м
[Cb cap]
+20.6 +17.8 84 +25 +25 комфорт 1010.3 934.6
06 15.08 ЮЗ 2 50 км в посл. час гроза {ливн. осадки} 8/4 600 м
[Cb cap Ci ing]
+23.4 +16.9 67 +29 +35 душно 1008.9 933.9
09 15.08 В 3 50 км 8/3 600 м
[Cb cap Ac lent Ci ing]
+24.2 +17.2 65 +28 +29 душно 1008.2 933.6
12 15.08 штиль 0 50 км 6/3 1000 м
[Sc diur, vesp Ci ing]
+21.1 +17.7 81 +25 +25 комфорт 1010.0 934.4 +26.0 1
15 15.08 З 1 50 км 4/3 1000 м
[Sc Ci fib]
+17.4 +16.4 94 +18 +18 1012.3 935.6
18 15.08 З 1 50 км 3/0
[Ci fib]
+14.9 +14.3 96 +15 +15 1013.5 936.0
21 15.08 СЗ 1 50 км местами туман поземный 3/0
[Ac lent]
+15.1 +14.4 96 +16 +16 1014.0 936.5
00 16.08 З 1 500 м туман ?/? +16.5 +15.8 96 +17 +17 1014.2 937.1 +14.1
03 16.08 ЮВ 2 50 км {туман} 10/3 600 м
[Cb calv Ac trans Ci fib]
+24.8 +17.4 63 +29 +33 душно 1011.1 936.4
06 16.08 ЮВ 3 50 км {туман} 10/3 1000 м
[Cu med, cong Ci ing]
+25.7 +16.2 56 +29 +35 душно 1009.5 935.0
09 16.08 ЮВ 3 50 км 10/3 600 м
[Cb calv Ci ing]
+26.1 +16.0 54 +29 +31 жарко 1008.3 934.0
12 16.08 ЮВ 3 50 км 10/1 1000 м
[Sc diur, vesp Ci fib]
+21.7 +17.6 78 +26 +26 душно 1009.7 934.3 +26.9
15 16.08 В 1 50 км 9/0
[Ac und]
+19.3 +17.1 87 +22 +22 комфорт 1011.2 935.1
18 16.08 ЮВ 1 50 км 10/0
[Ac trans Ci fib]
+18.0 +16.5 91 +19 +19 1011.2 934.7
21 16.08 З 1 1000 м туман на расстоянии 10/1 1000 м
[Sc Ci fib]
+14.5 +13.7 95 +15 +15 1012.3 934.8
00 17.08 ЮВ 3 50 км {туман} 10/0
[Ac trans Cs]
+19.9 +17.2 84 +23 +25 комфорт 1011.0 935.0 +14.0
03 17.08 Ю 5 50 км 10/4 600 м
[Cb cap Ac cuf Ci ing]
+23.5 +17.7 70 +28 +29 душно 1009.2 934.3

 

Местоположение метеостанции Агинское (Забайкальский край, Россия): широта 51.10 долгота 114.50 высота над уровнем моря 681 м.

В архиве по умолчанию представлена погода в Агинском за последнюю неделю. Архивные данные за месяц целиком и за предыдущие месяцы, начиная с января 2011 года, Вы можете получить, выбрав интересующий диапазон дат из раскрывающегося списка и нажав кнопку "Ввод!".

Внимание! Время в таблицах - всемирное. Для получения местного времени необходимо прибавить поправку, которая в Агинском равна 9 ч.

Смотрите также архив погоды в соседних городах и на ближайших метеорологических станциях:

Погода в Курорт-Дарасуне (Забайкальский край, Россия) (57 км)
Погода в Карымской (Забайкальский край, Россия) (61 км)
Погода в Оловянной (Забайкальский край, Россия) (72 км)
Погода в Дульдурге (Забайкальский край, Россия) (84 км)
Погода в Акше (Забайкальский край, Россия) (130 км)
Погода в Чите (Забайкальский край, Россия) (133 км)
Погода в Шилке (Забайкальский край, Россия) (135 км)
Погода в Улетах (Забайкальский край, Россия) (149 км)
Погода в Бургене (Забайкальский край, Россия) (158 км)
Погода в Соловьевске (Забайкальский край, Россия) (158 км)

Пояснения к столбцам:

Ветер - указаны скорость ветра в м/с - средняя за 10 мин, порывы в срок и между сроками (в фигурных скобках) и направление, откуда дует ветер: С - северный, СВ - северо-восточный, В - восточный, ЮВ - юго-восточный, Ю - южный, ЮЗ - юго-западный, З - западный, СЗ - северо-западный.
Видимость - горизонтальная дальность видимости в метрах или километрах. При видимости от 1 до 10 км при отсутствии осадков обычно наблюдается дымка, при ухудшении видимости до 1 км и менее - туман. В сухую погоду видимость может ухудшаться дымом, пылью или мглою.
Явления - указаны атмосферные явления, наблюдавшиеся в срок или в последний час перед сроком; фигурными скобками обозначены явления, наблюдавшиеся между сроками (за 1-3 часа до срока); квадратными скобками обозначены град или гололедные отложения с указанием их диаметра в мм.
Облачность - указаны через наклонную черту общая и нижняя облачность в баллах и высота нижней границы облаков в метрах; квадратными скобками обозначены формы облаков: Ci - перистые, Cs - перисто-слоистые, Cc - перисто-кучевые, Ac - высококучевые, As - высокослоистые, Sc - слоисто-кучевые, Ns - слоисто-дождевые, Cu - кучевые, Cb - кучево-дождевые. Подробнее классификацию облаков см. в Атласе облаков (PDF).
T - Температура воздуха - температура, измеренная на высоте 2 м над землей.
Td - Температура точки росы - температура, при понижении до которой содержащийся в воздухе водяной пар достигнет насыщения.
f - Относительная влажность воздуха - влажноcть воздуха, измеренная на высоте 2 м над землей.
Te - Эффективная температура - температура, которую ощущает одетый по сезону человек в тени. Характеристика душности погоды. При расчете учитывается влияние влажности воздуха и скорости ветра на теплоощущения человека.
Tes - Эффективная температура на солнце - температура, которую ощущает человек, с поправкой на солнечный нагрев. Характеристика знойности погоды. Зависит от высоты солнца над горизонтом, облачности и скорости ветра. Ночью, в пасмурную погоду, а также при ветре 12 м/с и более поправка равна нулю.
P - Атмосферное давление - приведенное к уровню моря атмосферное давление.
Po - Атмосферное давление - измеренное на уровне метеостанции атмосферное давление.
Tmin - Минимальная температура - минимум температуры воздуха на высоте 2 м над землей.
Tmax - Максимальная температура - максимум температуры воздуха на высоте 2 м над землей.
R - Количество осадков - Количество выпавших осадков за период времени, мм. При наведении курсора мыши на число - период времени, за который выпало указанное количество осадков.
R24 - Количество осадков - Количество выпавших осадков за 24 часа, мм.
S - Снежный покров - Высота снежного покрова, см. При наведении курсора мыши на число - состояние снежного покрова и степень покрытия местности в баллах.